WBANNO,USDM_WEEK,LONGITUDE,LATITUDE,SMVWC_5_CM_MEAN,SMANOM_5_CM_MEAN,SMPERC_5_CM_30COUNTS,SMPERC_5_CM_70COUNTS,SMVWC_10_CM_MEAN,SMANOM_10_CM_MEAN,SMPERC_10_CM_30COUNTS,SMPERC_10_CM_70COUNTS,SMVWC_20_CM_MEAN,SMANOM_20_CM_MEAN,SMPERC_20_CM_30COUNTS,SMPERC_20_CM_70COUNTS,SMVWC_50_CM_MEAN,SMANOM_50_CM_MEAN,SMPERC_50_CM_30COUNTS,SMPERC_50_CM_70COUNTS,SMVWC_100_CM_MEAN,SMANOM_100_CM_MEAN,SMPERC_100_CM_30COUNTS,SMPERC_100_CM_70COUNTS,SMVWC_TOP_CM_MEAN,SMANOM_TOP_CM_MEAN,SMPERC_TOP_CM_30COUNTS,SMPERC_TOP_CM_70COUNTS,SMVWC_COLUMN_CM_MEAN,SMANOM_COLUMN_CM_MEAN,SMPERC_COLUMN_CM_30COUNTS,SMPERC_COLUMN_CM_70COUNTS
92827,20100123,-81.37,27.15,,,,,,,,,,,,,,,,,,,,,,,,,,,,
92827,20100124,-81.37,27.15,,,,,,,,,,,,,,,,,,,,,,,,,,,,
92827,20100125,-81.37,27.15,,,,,,,,,,,,,,,,,,,,,,,,,,,,
92827,20100126,-81.37,27.15,,,,,,,,,,,,,,,,,,,,,,,,,,,,
92827,20100127,-81.37,27.15,,,,,,,,,,,,,,,,,,,,,,,,,,,,
92827,20100128,-81.37,27.15,,,,,,,,,,,,,,,,,,,,,,,,,,,,
92827,20100129,-81.37,27.15,0.034,-0.1,0.152,0.048,0.02,-0.06,0,0,0.021,-0.11,0,0,0.018,-0.44,0.981,0,0.059,-0.92,1,0,0.027,-0.07,0,0,0.03,-0.98,1,0
92827,20100130,-81.37,27.15,0.035,-0.12,0.124,0.039,0.021,-0.09,0,0,0.021,-0.16,0,0,0.019,-0.44,0.977,0,0.059,-0.91,1,0,0.028,-0.11,0,0,0.031,-0.97,1,0
92827,20100131,-81.37,27.15,0.037,-0.14,0.105,0.033,0.022,-0.12,0,0,0.021,-0.2,0,0,0.019,-0.44,0.98,0,0.06,-0.9,1,0,0.03,-0.14,0,0,0.032,-0.97,1,0
92827,20100201,-81.37,27.15,0.038,-0.13,0.012,0.031,0.024,-0.16,0.028,0,0.022,-0.22,0,0,0.019,-0.44,0.982,0,0.06,-0.89,1,0,0.031,-0.17,0.028,0,0.033,-0.97,1,0
92827,20100202,-81.37,27.15,0.038,-0.11,0,0.06,0.022,-0.16,0.052,0,0.021,-0.27,0.045,0,0.02,-0.44,0.982,0,0.06,-0.88,1,0,0.03,-0.15,0.032,0,0.032,-0.94,1,0
92827,20100203,-81.37,27.15,0.04,-0.06,0,0.137,0.023,-0.12,0.049,0,0.02,-0.28,0.043,0,0.019,-0.45,0.988,0,0.06,-0.86,1,0,0.032,-0.1,0.031,0.012,0.033,-0.91,1,0
92827,20100204,-81.37,27.15,0.041,-0.02,0,0.137,0.024,-0.1,0.048,0,0.02,-0.28,0.042,0,0.019,-0.46,0.988,0,0.061,-0.85,1,0,0.033,-0.07,0.03,0.012,0.033,-0.88,1,0
92827,20100205,-81.37,27.15,0.042,0.01,0,0.137,0.025,-0.09,0.048,0,0.02,-0.29,0.042,0,0.018,-0.46,0.994,0,0.061,-0.84,1,0,0.034,-0.05,0.03,0.012,0.033,-0.87,1,0
92827,20100206,-81.37,27.15,0.047,0.14,0,0.22,0.029,0.05,0.048,0.083,0.022,-0.24,0.042,0.006,0.019,-0.46,0.952,0,0.06,-0.83,1,0,0.038,0.08,0.03,0.095,0.035,-0.82,0.952,0
92827,20100207,-81.37,27.15,0.049,0.23,0,0.274,0.032,0.13,0.048,0.131,0.023,-0.17,0.042,0.006,0.021,-0.44,0.81,0,0.061,-0.82,1,0,0.041,0.16,0.03,0.131,0.037,-0.77,0.952,0
92827,20100208,-81.37,27.15,0.051,0.29,0,0.274,0.033,0.18,0.024,0.131,0.024,-0.12,0.042,0.006,0.022,-0.43,0.685,0,0.062,-0.81,1,0,0.042,0.22,0.006,0.131,0.039,-0.74,0.952,0
92827,20100209,-81.37,27.15,0.05,0.25,0,0.214,0.033,0.17,0,0.131,0.025,-0.09,0,0.006,0.023,-0.42,0.631,0,0.063,-0.8,1,0,0.042,0.19,0,0.131,0.039,-0.74,0.952,0
92827,20100210,-81.37,27.15,0.049,0.24,0,0.214,0.033,0.15,0,0.131,0.025,-0.09,0,0.006,0.024,-0.41,0.631,0,0.065,-0.78,1,0,0.041,0.17,0,0.119,0.039,-0.73,0.952,0
92827,20100211,-81.37,27.15,0.049,0.23,0,0.214,0.033,0.15,0,0.131,0.025,-0.08,0,0.006,0.025,-0.4,0.631,0,0.066,-0.76,1,0,0.041,0.17,0,0.119,0.04,-0.72,0.952,0
92827,20100212,-81.37,27.15,0.049,0.23,0,0.214,0.033,0.14,0,0.131,0.026,-0.08,0,0.006,0.025,-0.4,0.631,0,0.068,-0.75,1,0,0.041,0.16,0,0.119,0.04,-0.71,0.952,0
92827,20100213,-81.37,27.15,0.051,0.29,0,0.22,0.034,0.17,0,0.137,0.026,-0.05,0,0.065,0.026,-0.39,0.613,0,0.07,-0.74,1,0,0.042,0.21,0,0.125,0.042,-0.69,0.911,0
92827,20100214,-81.37,27.15,0.051,0.3,0,0.226,0.034,0.16,0,0.137,0.027,-0.04,0,0.065,0.027,-0.39,0.613,0,0.074,-0.72,1,0,0.043,0.21,0,0.143,0.043,-0.67,0.905,0
92827,20100215,-81.37,27.15,0.052,0.31,0,0.226,0.034,0.16,0,0.137,0.027,-0.03,0,0.065,0.027,-0.39,0.673,0,0.082,-0.69,1,0,0.043,0.22,0,0.143,0.044,-0.63,0.905,0
92827,20100216,-81.37,27.15,0.052,0.31,0,0.226,0.035,0.17,0,0.137,0.027,-0.03,0,0.065,0.027,-0.39,0.72,0,0.09,-0.65,1,0,0.043,0.22,0,0.143,0.046,-0.59,0.905,0
92827,20100217,-81.37,27.15,0.051,0.26,0,0.149,0.034,0.13,0,0.137,0.027,-0.03,0,0.065,0.028,-0.39,0.72,0,0.099,-0.6,1,0,0.042,0.17,0,0.143,0.048,-0.57,0.905,0
92827,20100218,-81.37,27.15,0.049,0.21,0,0.149,0.033,0.09,0.006,0.137,0.027,-0.04,0.012,0.065,0.028,-0.39,0.72,0,0.107,-0.56,1,0,0.041,0.12,0,0.143,0.049,-0.54,0.905,0
92827,20100219,-81.37,27.15,0.049,0.18,0,0.149,0.033,0.07,0.036,0.137,0.026,-0.05,0.054,0.065,0.028,-0.4,0.72,0,0.116,-0.52,1,0,0.041,0.09,0.024,0.143,0.05,-0.51,0.905,0
92827,20100220,-81.37,27.15,0.043,-0.02,0.018,0.06,0.028,-0.11,0.113,0.048,0.024,-0.14,0.149,0,0.026,-0.41,0.786,0,0.123,-0.47,1,0,0.035,-0.11,0.125,0.054,0.049,-0.54,0.994,0
92827,20100221,-81.37,27.15,0.039,-0.13,0.095,0,0.025,-0.2,0.208,0,0.022,-0.22,0.292,0,0.024,-0.44,0.929,0,0.128,-0.44,1,0,0.032,-0.22,0.262,0,0.048,-0.55,1,0
92827,20100222,-81.37,27.15,0.037,-0.22,0.226,0,0.023,-0.27,0.345,0,0.021,-0.28,0.435,0,0.023,-0.46,0.994,0,0.128,-0.43,1,0,0.03,-0.3,0.405,0,0.046,-0.57,1,0
92827,20100223,-81.37,27.15,0.035,-0.28,0.369,0,0.022,-0.3,0.476,0,0.02,-0.31,0.542,0,0.022,-0.47,1,0,0.127,-0.44,1,0,0.029,-0.35,0.548,0,0.045,-0.58,1,0
92827,20100224,-81.37,27.15,0.034,-0.34,0.512,0,0.022,-0.33,0.601,0,0.019,-0.33,0.625,0,0.021,-0.48,1,0,0.125,-0.44,1,0,0.028,-0.4,0.69,0,0.044,-0.59,1,0
92827,20100225,-81.37,27.15,0.034,-0.32,0.554,0.006,0.023,-0.3,0.643,0,0.018,-0.35,0.75,0,0.02,-0.49,1,0,0.122,-0.45,1,0,0.028,-0.38,0.738,0,0.044,-0.59,1,0
92827,20100226,-81.37,27.15,0.035,-0.31,0.554,0.006,0.023,-0.28,0.613,0,0.018,-0.37,0.851,0,0.02,-0.51,1,0,0.12,-0.45,1,0,0.029,-0.37,0.732,0,0.043,-0.58,1,0
92827,20100227,-81.37,27.15,0.035,-0.31,0.56,0.006,0.024,-0.27,0.571,0,0.018,-0.39,0.899,0,0.019,-0.52,1,0,0.118,-0.46,1,0,0.029,-0.37,0.708,0,0.043,-0.58,1,0
92827,20100228,-81.37,27.15,0.035,-0.3,0.53,0.006,0.024,-0.26,0.506,0,0.017,-0.4,0.899,0,0.019,-0.53,1,0,0.115,-0.46,1,0,0.03,-0.36,0.702,0,0.042,-0.58,1,0
92827,20100301,-81.37,27.15,0.036,-0.29,0.458,0.006,0.025,-0.25,0.482,0,0.017,-0.41,0.899,0,0.018,-0.56,1,0,0.113,-0.47,1,0,0.03,-0.35,0.685,0,0.042,-0.58,1,0
92827,20100302,-81.37,27.15,0.036,-0.28,0.429,0.006,0.025,-0.25,0.476,0,0.017,-0.43,0.935,0,0.017,-0.58,1,0,0.11,-0.48,1,0,0.031,-0.34,0.685,0,0.041,-0.58,1,0
92827,20100303,-81.37,27.15,0.039,-0.15,0.298,0.065,0.028,-0.14,0.357,0.048,0.017,-0.44,0.976,0,0.017,-0.61,1,0,0.107,-0.49,1,0,0.034,-0.21,0.554,0.048,0.042,-0.56,0.988,0
92827,20100304,-81.37,27.15,0.039,-0.13,0.256,0.06,0.028,-0.12,0.31,0.048,0.017,-0.43,0.929,0,0.017,-0.64,1,0,0.104,-0.49,1,0,0.034,-0.19,0.506,0.048,0.041,-0.56,0.988,0
92827,20100305,-81.37,27.15,0.04,-0.11,0.256,0.06,0.029,-0.11,0.31,0.048,0.017,-0.43,0.929,0,0.017,-0.67,1,0,0.102,-0.5,1,0,0.034,-0.16,0.488,0.048,0.041,-0.56,0.988,0
92827,20100306,-81.37,27.15,0.04,-0.08,0.232,0.06,0.029,-0.09,0.274,0.048,0.018,-0.42,0.899,0,0.017,-0.71,1,0,0.099,-0.51,1,0,0.034,-0.13,0.411,0.048,0.04,-0.56,0.988,0
92827,20100307,-81.37,27.15,0.04,-0.06,0.185,0.06,0.029,-0.08,0.244,0.048,0.018,-0.41,0.899,0,0.017,-0.74,1,0,0.096,-0.51,1,0,0.035,-0.11,0.28,0.048,0.04,-0.56,0.988,0
92827,20100308,-81.37,27.15,0.04,-0.05,0.131,0.06,0.029,-0.07,0.137,0.048,0.018,-0.4,0.899,0,0.017,-0.78,1,0,0.093,-0.52,1,0,0.034,-0.09,0.155,0.048,0.039,-0.57,0.988,0
92827,20100309,-81.37,27.15,0.04,-0.05,0.036,0.06,0.029,-0.06,0.024,0.048,0.018,-0.39,0.899,0,0.016,-0.81,1,0,0.09,-0.52,1,0,0.034,-0.07,0.012,0.048,0.039,-0.57,0.988,0
92827,20100310,-81.37,27.15,0.037,-0.16,0.101,0,0.026,-0.16,0.065,0,0.018,-0.4,0.899,0,0.016,-0.84,1,0,0.088,-0.53,1,0,0.032,-0.18,0.06,0,0.037,-0.59,1,0
92827,20100311,-81.37,27.15,0.035,-0.24,0.238,0,0.025,-0.22,0.137,0,0.018,-0.41,0.946,0,0.016,-0.87,1,0,0.085,-0.53,1,0,0.03,-0.24,0.185,0,0.036,-0.61,1,0
92827,20100312,-81.37,27.15,0.037,-0.12,0.315,0.065,0.028,-0.08,0.214,0.065,0.018,-0.38,0.881,0.006,0.017,-0.88,1,0,0.083,-0.54,1,0,0.033,-0.11,0.262,0.065,0.037,-0.59,0.935,0
92827,20100313,-81.37,27.15,0.046,0.29,0.315,0.208,0.036,0.25,0.214,0.208,0.021,-0.23,0.768,0.107,0.021,-0.8,0.857,0,0.11,-0.4,0.863,0.095,0.041,0.27,0.262,0.208,0.047,-0.41,0.792,0.125
92827,20100314,-81.37,27.15,0.048,0.43,0.315,0.351,0.038,0.35,0.214,0.292,0.023,-0.16,0.625,0.107,0.024,-0.72,0.714,0,0.146,-0.22,0.72,0.238,0.043,0.39,0.262,0.321,0.056,-0.25,0.649,0.268
92827,20100315,-81.37,27.15,0.05,0.52,0.31,0.435,0.04,0.42,0.208,0.292,0.024,-0.11,0.482,0.107,0.027,-0.65,0.577,0,0.183,-0.04,0.577,0.381,0.045,0.47,0.262,0.321,0.065,-0.09,0.506,0.411
92827,20100316,-81.37,27.15,0.052,0.6,0.292,0.435,0.042,0.46,0.196,0.292,0.025,-0.08,0.339,0.107,0.03,-0.58,0.506,0,0.221,0.14,0.435,0.524,0.047,0.53,0.262,0.321,0.074,0.06,0.363,0.554
92827,20100317,-81.37,27.15,0.053,0.66,0.214,0.435,0.042,0.49,0.149,0.292,0.026,-0.07,0.25,0.107,0.032,-0.52,0.506,0,0.259,0.33,0.292,0.667,0.048,0.58,0.202,0.321,0.083,0.2,0.22,0.631
92827,20100318,-81.37,27.15,0.054,0.72,0.077,0.435,0.043,0.51,0.077,0.292,0.027,-0.06,0.256,0.107,0.035,-0.46,0.506,0,0.297,0.51,0.149,0.81,0.049,0.62,0.077,0.321,0.091,0.34,0.077,0.631
92827,20100319,-81.37,27.15,0.051,0.58,0,0.369,0.039,0.34,0,0.226,0.026,-0.11,0.321,0.101,0.036,-0.44,0.506,0,0.336,0.69,0.006,0.952,0.045,0.46,0,0.256,0.098,0.43,0,0.631
92827,20100320,-81.37,27.15,0.042,0.15,0,0.226,0.031,-0.02,0.054,0.083,0.023,-0.29,0.464,0,0.034,-0.52,0.649,0,0.345,0.72,0,1,0.036,0.06,0.048,0.113,0.095,0.37,0,0.506
92827,20100321,-81.37,27.15,0.039,0.01,0,0.083,0.028,-0.16,0.19,0,0.022,-0.39,0.607,0,0.032,-0.59,0.792,0,0.347,0.72,0,1,0.033,-0.08,0.143,0,0.093,0.32,0,0.363
92827,20100322,-81.37,27.15,0.04,0.06,0,0.095,0.03,-0.08,0.238,0.095,0.022,-0.4,0.661,0,0.031,-0.63,0.929,0,0.348,0.71,0,1,0.035,0,0.19,0.095,0.094,0.32,0,0.315
92827,20100323,-81.37,27.15,0.042,0.13,0,0.226,0.032,-0.01,0.238,0.173,0.022,-0.38,0.661,0,0.031,-0.63,0.976,0,0.348,0.7,0,1,0.037,0.08,0.19,0.19,0.095,0.33,0,0.315
92827,20100324,-81.37,27.15,0.042,0.16,0,0.25,0.033,0.03,0.238,0.173,0.023,-0.36,0.625,0,0.032,-0.62,0.964,0,0.349,0.69,0,1,0.038,0.12,0.19,0.19,0.096,0.33,0,0.375
92827,20100325,-81.37,27.15,0.043,0.19,0,0.25,0.034,0.05,0.238,0.173,0.024,-0.34,0.5,0,0.033,-0.61,0.964,0,0.35,0.69,0,1,0.038,0.16,0.19,0.19,0.097,0.34,0,0.435
92827,20100326,-81.37,27.15,0.044,0.23,0,0.25,0.034,0.07,0.238,0.173,0.024,-0.33,0.47,0,0.033,-0.61,0.964,0,0.351,0.68,0,1,0.039,0.19,0.19,0.19,0.097,0.34,0,0.435
92827,20100327,-81.37,27.15,0.045,0.28,0,0.25,0.035,0.12,0.185,0.173,0.025,-0.31,0.464,0,0.034,-0.59,0.964,0,0.352,0.67,0,1,0.04,0.26,0.143,0.19,0.098,0.36,0,0.494
92827,20100328,-81.37,27.15,0.046,0.33,0,0.25,0.036,0.16,0.048,0.173,0.025,-0.28,0.423,0,0.035,-0.58,0.964,0,0.352,0.66,0,1,0.041,0.31,0.048,0.19,0.099,0.37,0,0.494
92827,20100329,-81.37,27.15,0.049,0.46,0,0.232,0.039,0.33,0,0.155,0.029,-0.07,0.423,0.077,0.052,0.17,0.887,0.071,0.353,0.65,0,1,0.044,0.47,0,0.173,0.104,0.46,0,0.476
92827,20100330,-81.37,27.15,0.052,0.61,0,0.244,0.044,0.55,0,0.22,0.034,0.27,0.423,0.22,0.096,2.16,0.768,0.214,0.353,0.64,0,1,0.048,0.67,0,0.22,0.116,0.66,0,0.476
92827,20100331,-81.37,27.15,0.055,0.73,0,0.363,0.047,0.71,0,0.363,0.038,0.5,0.423,0.363,0.14,4.07,0.637,0.357,0.353,0.64,0,1,0.051,0.83,0,0.363,0.127,0.85,0,0.482
92827,20100401,-81.37,27.15,0.057,0.84,0,0.506,0.049,0.83,0,0.506,0.04,0.66,0.405,0.506,0.183,5.93,0.494,0.5,0.354,0.63,0,1,0.053,0.95,0,0.506,0.137,1.02,0,0.565
92827,20100402,-81.37,27.15,0.059,0.92,0,0.649,0.051,0.92,0,0.637,0.042,0.79,0.292,0.643,0.225,7.74,0.351,0.643,0.354,0.63,0,1,0.055,1.04,0,0.649,0.146,1.19,0,0.708
92827,20100403,-81.37,27.15,0.059,0.97,0,0.792,0.052,0.96,0,0.667,0.044,0.89,0.155,0.685,0.265,9.5,0.208,0.786,0.354,0.63,0,1,0.056,1.08,0,0.75,0.155,1.34,0,0.792
92827,20100404,-81.37,27.15,0.06,1.01,0,0.857,0.053,0.99,0,0.667,0.045,0.95,0.054,0.685,0.304,11.15,0.065,0.929,0.355,0.63,0,1,0.056,1.11,0,0.768,0.163,1.5,0,0.929
92827,20100405,-81.37,27.15,0.054,0.8,0,0.78,0.047,0.7,0,0.589,0.042,0.77,0,0.607,0.323,11.94,0,1,0.355,0.63,0,1,0.05,0.85,0,0.69,0.164,1.56,0,1
92827,20100406,-81.37,27.15,0.048,0.58,0,0.637,0.04,0.38,0,0.446,0.036,0.41,0,0.464,0.311,11.31,0,1,0.355,0.62,0,1,0.044,0.55,0,0.548,0.158,1.48,0,1
92827,20100407,-81.37,27.15,0.043,0.41,0,0.494,0.036,0.17,0.006,0.304,0.033,0.17,0,0.321,0.296,10.6,0,1,0.355,0.6,0,1,0.039,0.34,0,0.405,0.152,1.4,0,1
92827,20100408,-81.37,27.15,0.039,0.26,0,0.351,0.032,0.01,0.024,0.161,0.03,0.01,0.012,0.179,0.279,9.85,0,1,0.356,0.58,0,1,0.035,0.17,0.06,0.262,0.147,1.33,0,1
92827,20100409,-81.37,27.15,0.035,0.14,0,0.208,0.029,-0.12,0.167,0.03,0.028,-0.11,0.089,0.042,0.261,9.03,0,1,0.356,0.54,0,1,0.032,0.03,0.185,0.119,0.142,1.23,0,1
92827,20100410,-81.37,27.15,0.032,0.03,0.006,0.065,0.027,-0.24,0.31,0,0.027,-0.21,0.22,0,0.241,8.11,0,1,0.356,0.49,0,1,0.03,-0.1,0.327,0.018,0.136,1.1,0,1
92827,20100411,-81.37,27.15,0.029,-0.08,0.095,0,0.025,-0.34,0.452,0,0.026,-0.29,0.363,0,0.219,7.14,0,1,0.356,0.46,0,1,0.027,-0.21,0.47,0,0.131,0.98,0,1
92827,20100412,-81.37,27.15,0.026,-0.17,0.232,0,0.023,-0.41,0.595,0,0.025,-0.37,0.506,0,0.197,6.16,0,1,0.356,0.46,0,1,0.025,-0.31,0.613,0,0.125,0.88,0,1
92827,20100413,-81.37,27.15,0.023,-0.26,0.375,0,0.022,-0.47,0.738,0,0.024,-0.42,0.649,0,0.176,5.26,0,1,0.356,0.46,0,1,0.023,-0.39,0.756,0,0.12,0.79,0,1
92827,20100414,-81.37,27.15,0.021,-0.32,0.518,0,0.021,-0.52,0.875,0,0.023,-0.47,0.792,0,0.156,4.41,0,1,0.356,0.47,0,1,0.021,-0.47,0.899,0,0.115,0.71,0,1
92827,20100415,-81.37,27.15,0.019,-0.38,0.661,0,0.019,-0.57,1,0,0.022,-0.53,0.923,0,0.137,3.62,0,1,0.356,0.48,0,1,0.019,-0.54,0.982,0,0.111,0.63,0,1
92827,20100416,-81.37,27.15,0.017,-0.45,0.804,0,0.018,-0.62,1,0,0.021,-0.58,0.988,0,0.12,2.88,0,1,0.356,0.48,0,1,0.017,-0.61,1,0,0.106,0.56,0,1
92827,20100417,-81.37,27.15,0.015,-0.5,0.94,0,0.018,-0.64,1,0,0.02,-0.63,1,0,0.105,2.26,0,1,0.356,0.5,0,1,0.016,-0.66,1,0,0.103,0.5,0,0.982
92827,20100418,-81.37,27.15,0.014,-0.53,0.994,0,0.017,-0.68,1,0,0.02,-0.67,1,0,0.094,1.79,0,1,0.356,0.51,0,1,0.015,-0.71,1,0,0.1,0.46,0,0.982
92827,20100419,-81.37,27.15,0.014,-0.5,0.917,0,0.019,-0.57,0.917,0.083,0.02,-0.65,0.929,0,0.085,1.4,0,1,0.356,0.53,0,1,0.017,-0.65,0.917,0.048,0.099,0.44,0,0.982
92827,20100420,-81.37,27.15,0.016,-0.44,0.774,0,0.021,-0.47,0.774,0.095,0.02,-0.61,0.786,0,0.078,1.12,0,1,0.356,0.54,0,1,0.018,-0.57,0.774,0.048,0.098,0.44,0,0.982
92827,20100421,-81.37,27.15,0.016,-0.39,0.631,0,0.022,-0.4,0.631,0.095,0.021,-0.57,0.643,0,0.073,0.9,0,1,0.356,0.56,0,1,0.019,-0.51,0.631,0.048,0.098,0.45,0,0.982
92827,20100422,-81.37,27.15,0.017,-0.35,0.524,0,0.024,-0.33,0.488,0.095,0.021,-0.53,0.536,0,0.069,0.73,0,0.94,0.356,0.57,0,1,0.021,-0.46,0.554,0.048,0.098,0.46,0,0.982
92827,20100423,-81.37,27.15,0.018,-0.31,0.464,0,0.025,-0.27,0.363,0.095,0.021,-0.48,0.435,0,0.066,0.59,0,0.798,0.356,0.59,0,1,0.021,-0.41,0.524,0.048,0.097,0.47,0,0.985
92827,20100424,-81.37,27.15,0.018,-0.29,0.464,0,0.025,-0.23,0.321,0.095,0.021,-0.45,0.435,0,0.063,0.48,0,0.655,0.356,0.6,0,1,0.022,-0.38,0.524,0.048,0.097,0.47,0,1
92827,20100425,-81.37,27.15,0.018,-0.28,0.464,0,0.026,-0.17,0.304,0.095,0.021,-0.43,0.435,0,0.061,0.39,0,0.512,0.356,0.61,0,1,0.022,-0.35,0.524,0.048,0.096,0.46,0,1
92827,20100426,-81.37,27.15,0.017,-0.28,0.518,0.03,0.026,-0.16,0.351,0.048,0.021,-0.42,0.476,0.018,0.059,0.31,0,0.375,0.356,0.62,0,1,0.022,-0.35,0.571,0.03,0.096,0.47,0,1
92827,20100427,-81.37,27.15,0.018,-0.23,0.518,0.048,0.028,-0.07,0.351,0.131,0.022,-0.33,0.476,0.077,0.062,0.41,0,0.375,0.356,0.62,0,1,0.023,-0.29,0.571,0.089,0.097,0.54,0,1
92827,20100428,-81.37,27.15,0.018,-0.21,0.518,0.048,0.028,-0.03,0.351,0.131,0.023,-0.27,0.476,0.077,0.065,0.54,0,0.375,0.356,0.63,0,1,0.023,-0.26,0.571,0.089,0.098,0.57,0,1
92827,20100429,-81.37,27.15,0.018,-0.18,0.482,0.048,0.028,0.01,0.351,0.131,0.024,-0.22,0.44,0.077,0.068,0.65,0,0.435,0.356,0.63,0,1,0.023,-0.23,0.506,0.089,0.099,0.58,0,1
92827,20100430,-81.37,27.15,0.018,-0.16,0.405,0.048,0.029,0.04,0.333,0.131,0.024,-0.17,0.399,0.077,0.071,0.74,0,0.577,0.356,0.63,0,1,0.023,-0.2,0.393,0.089,0.1,0.59,0,1
92827,20100501,-81.37,27.15,0.018,-0.14,0.369,0.048,0.029,0.07,0.268,0.131,0.025,-0.11,0.256,0.077,0.072,0.81,0,0.72,0.356,0.64,0,1,0.024,-0.17,0.315,0.089,0.1,0.59,0,1
92827,20100502,-81.37,27.15,0.019,-0.11,0.369,0.048,0.029,0.09,0.226,0.131,0.026,-0.05,0.113,0.077,0.073,0.86,0,0.857,0.356,0.64,0,1,0.024,-0.14,0.292,0.089,0.101,0.6,0,1
92827,20100503,-81.37,27.15,0.017,-0.15,0.399,0.018,0.026,-0.03,0.262,0.095,0.025,-0.05,0,0.06,0.074,0.9,0,0.863,0.356,0.63,0,1,0.022,-0.21,0.327,0.06,0.1,0.57,0,1
92827,20100504,-81.37,27.15,0.014,-0.26,0.542,0,0.021,-0.22,0.405,0,0.023,-0.17,0.101,0,0.068,0.72,0,0.72,0.356,0.63,0,1,0.018,-0.37,0.47,0,0.096,0.49,0,1
92827,20100505,-81.37,27.15,0.012,-0.35,0.685,0,0.018,-0.34,0.548,0,0.021,-0.24,0.238,0,0.062,0.51,0,0.577,0.356,0.62,0,1,0.015,-0.47,0.613,0,0.094,0.42,0,0.946
92827,20100506,-81.37,27.15,0.01,-0.42,0.827,0,0.016,-0.42,0.69,0,0.019,-0.31,0.381,0,0.056,0.33,0,0.435,0.355,0.62,0,1,0.013,-0.56,0.756,0,0.091,0.36,0,0.845
92827,20100507,-81.37,27.15,0.009,-0.46,0.964,0,0.014,-0.49,0.833,0,0.017,-0.38,0.524,0,0.052,0.18,0,0.292,0.355,0.62,0,1,0.012,-0.62,0.899,0,0.089,0.32,0,0.756
92827,20100508,-81.37,27.15,0.009,-0.48,1,0,0.012,-0.54,0.94,0,0.015,-0.43,0.667,0,0.048,0.06,0,0.149,0.354,0.61,0,1,0.011,-0.66,0.976,0,0.088,0.28,0,0.631
92827,20100509,-81.37,27.15,0.009,-0.5,1,0,0.01,-0.59,1,0,0.014,-0.48,0.81,0,0.044,-0.05,0.054,0.012,0.354,0.61,0,1,0.01,-0.7,1,0,0.086,0.25,0,0.488
92827,20100510,-81.37,27.15,0.008,-0.51,1,0,0.01,-0.6,1,0,0.013,-0.5,0.952,0,0.041,-0.14,0.185,0,0.353,0.62,0,1,0.009,-0.71,1,0,0.085,0.23,0,0.345
92827,20100511,-81.37,27.15,0.008,-0.52,1,0,0.009,-0.59,1,0,0.012,-0.52,0.994,0,0.039,-0.22,0.327,0,0.353,0.62,0,1,0.009,-0.72,1,0,0.084,0.22,0,0.202
92827,20100512,-81.37,27.15,0.008,-0.52,1,0,0.009,-0.58,1,0,0.011,-0.54,1,0,0.036,-0.3,0.47,0,0.353,0.62,0,1,0.008,-0.73,1,0,0.083,0.21,0,0.113
92827,20100513,-81.37,27.15,0.008,-0.53,1,0,0.008,-0.58,1,0,0.011,-0.55,1,0,0.034,-0.37,0.613,0,0.352,0.63,0,1,0.008,-0.74,1,0,0.082,0.2,0,0.071
92827,20100514,-81.37,27.15,0.007,-0.56,1,0,0.007,-0.58,1,0,0.01,-0.56,1,0,0.032,-0.43,0.756,0,0.352,0.63,0,1,0.007,-0.76,1,0,0.082,0.19,0,0.018
92827,20100515,-81.37,27.15,0.006,-0.6,1,0,0.008,-0.55,0.97,0,0.009,-0.58,1,0,0.03,-0.49,0.899,0,0.352,0.64,0,1,0.007,-0.77,1,0,0.081,0.18,0,0
92827,20100516,-81.37,27.15,0.005,-0.63,1,0,0.008,-0.51,0.964,0,0.008,-0.6,1,0,0.028,-0.54,0.988,0,0.352,0.65,0,1,0.007,-0.77,1,0,0.08,0.18,0,0
92827,20100517,-81.37,27.15,0.004,-0.66,1,0,0.009,-0.49,0.964,0,0.007,-0.63,1,0,0.026,-0.59,1,0,0.352,0.65,0,1,0.007,-0.77,1,0,0.08,0.17,0,0
92827,20100518,-81.37,27.15,0.006,-0.6,0.893,0.012,0.012,-0.31,0.845,0.107,0.008,-0.58,0.893,0.006,0.028,-0.53,0.893,0.006,0.351,0.66,0,1,0.009,-0.63,0.893,0.06,0.081,0.21,0,0.107
92827,20100519,-81.37,27.15,0.008,-0.53,0.75,0.012,0.014,-0.21,0.702,0.131,0.009,-0.51,0.75,0.006,0.03,-0.44,0.75,0.006,0.351,0.66,0,1,0.011,-0.52,0.75,0.06,0.082,0.25,0,0.25
92827,20100520,-81.37,27.15,0.009,-0.47,0.649,0.012,0.016,-0.13,0.56,0.131,0.01,-0.44,0.607,0.006,0.033,-0.35,0.607,0.006,0.351,0.67,0,1,0.012,-0.44,0.607,0.06,0.084,0.28,0,0.393
92827,20100521,-81.37,27.15,0.01,-0.43,0.607,0.012,0.017,-0.09,0.446,0.131,0.011,-0.38,0.464,0.006,0.035,-0.27,0.464,0.006,0.351,0.68,0,1,0.014,-0.39,0.542,0.06,0.085,0.31,0,0.536
92827,20100522,-81.37,27.15,0.012,-0.38,0.536,0.012,0.017,-0.08,0.464,0.131,0.013,-0.33,0.321,0.006,0.037,-0.19,0.321,0.006,0.351,0.69,0,1,0.014,-0.35,0.512,0.06,0.086,0.34,0,0.679
92827,20100523,-81.37,27.15,0.013,-0.35,0.536,0.012,0.017,-0.1,0.47,0.131,0.014,-0.28,0.179,0.006,0.039,-0.12,0.179,0.006,0.351,0.69,0,1,0.015,-0.34,0.512,0.06,0.087,0.36,0,0.821
92827,20100524,-81.37,27.15,0.013,-0.34,0.536,0.012,0.016,-0.13,0.47,0.131,0.015,-0.23,0.143,0.006,0.04,-0.06,0.077,0.006,0.351,0.7,0,1,0.015,-0.34,0.512,0.06,0.087,0.37,0,0.958
92827,20100525,-81.37,27.15,0.011,-0.43,0.643,0,0.012,-0.32,0.589,0.024,0.015,-0.26,0.244,0,0.039,-0.11,0.173,0,0.351,0.71,0,1,0.012,-0.49,0.619,0,0.085,0.35,0,0.96
92827,20100526,-81.37,27.15,0.01,-0.49,0.756,0,0.01,-0.38,0.637,0,0.014,-0.33,0.387,0,0.036,-0.19,0.315,0,0.35,0.72,0,1,0.01,-0.55,0.708,0,0.084,0.32,0,0.952
92827,20100527,-81.37,27.15,0.009,-0.54,0.839,0,0.01,-0.43,0.72,0,0.013,-0.4,0.53,0,0.033,-0.28,0.458,0,0.35,0.72,0,1,0.009,-0.59,0.839,0,0.083,0.3,0,0.932
92827,20100528,-81.37,27.15,0.009,-0.57,0.881,0,0.009,-0.45,0.833,0,0.012,-0.45,0.673,0,0.03,-0.35,0.601,0,0.35,0.72,0,1,0.009,-0.61,0.905,0,0.082,0.27,0,0.913
92827,20100529,-81.37,27.15,0.008,-0.62,0.952,0,0.009,-0.46,0.845,0,0.011,-0.51,0.815,0,0.027,-0.43,0.744,0,0.349,0.73,0,1,0.009,-0.62,0.935,0,0.081,0.24,0,0.86
92827,20100530,-81.37,27.15,0.008,-0.63,0.952,0,0.012,-0.35,0.744,0.036,0.011,-0.52,0.857,0,0.027,-0.43,0.792,0,0.349,0.73,0,1,0.01,-0.55,0.833,0.012,0.082,0.21,0,0.765
92827,20100531,-81.37,27.15,0.009,-0.61,0.935,0,0.016,-0.21,0.601,0.089,0.013,-0.48,0.75,0,0.029,-0.4,0.75,0,0.349,0.73,0,1,0.013,-0.46,0.69,0.024,0.083,0.21,0,0.5
92827,20100601,-81.37,27.15,0.011,-0.52,0.857,0.024,0.021,-0.03,0.458,0.167,0.015,-0.4,0.613,0,0.031,-0.35,0.619,0,0.349,0.73,0,1,0.016,-0.31,0.548,0.065,0.086,0.27,0,0.714
92827,20100602,-81.37,27.15,0.013,-0.45,0.744,0.024,0.024,0.06,0.411,0.226,0.017,-0.32,0.47,0,0.035,-0.27,0.476,0,0.349,0.74,0,1,0.019,-0.23,0.458,0.065,0.088,0.32,0,0.714
92827,20100603,-81.37,27.15,0.016,-0.35,0.619,0.048,0.028,0.18,0.327,0.315,0.02,-0.22,0.327,0,0.04,-0.18,0.333,0,0.349,0.75,0,1,0.022,-0.12,0.327,0.119,0.091,0.38,0,0.857
92827,20100604,-81.37,27.15,0.02,-0.2,0.476,0.131,0.032,0.33,0.185,0.452,0.023,-0.13,0.185,0,0.044,-0.09,0.19,0,0.349,0.76,0,1,0.026,0.03,0.185,0.202,0.094,0.44,0,0.857
92827,20100605,-81.37,27.15,0.023,-0.08,0.333,0.137,0.035,0.44,0.042,0.5,0.025,-0.03,0.042,0,0.049,0,0.048,0,0.35,0.77,0,1,0.029,0.14,0.042,0.244,0.097,0.52,0,1
92827,20100606,-81.37,27.15,0.025,0,0.19,0.137,0.035,0.4,0,0.464,0.027,0.01,0,0,0.052,0.03,0,0,0.35,0.78,0,1,0.03,0.16,0,0.232,0.098,0.58,0,1
92827,20100607,-81.37,27.15,0.027,0.05,0.065,0.137,0.033,0.32,0,0.411,0.027,0,0,0,0.053,0.03,0,0,0.35,0.78,0,1,0.03,0.15,0,0.22,0.098,0.61,0,1
92827,20100608,-81.37,27.15,0.028,0.07,0,0.113,0.031,0.23,0,0.333,0.026,-0.04,0,0,0.053,0.01,0,0,0.35,0.79,0,1,0.029,0.12,0,0.179,0.098,0.61,0,1
92827,20100609,-81.37,27.15,0.028,0.07,0,0.113,0.03,0.15,0,0.274,0.025,-0.08,0.03,0,0.052,-0.04,0.042,0,0.35,0.77,0,1,0.029,0.09,0,0.179,0.097,0.59,0,1
92827,20100610,-81.37,27.15,0.027,0.01,0.042,0.089,0.027,0.03,0.101,0.185,0.025,-0.13,0.143,0,0.05,-0.1,0.143,0,0.349,0.74,0,1,0.027,0,0.089,0.125,0.095,0.55,0,1
92827,20100611,-81.37,27.15,0.024,-0.12,0.179,0.006,0.022,-0.14,0.244,0.048,0.023,-0.21,0.286,0,0.047,-0.16,0.286,0,0.349,0.7,0,1,0.023,-0.14,0.232,0.042,0.093,0.49,0,0.857
92827,20100612,-81.37,27.15,0.021,-0.22,0.321,0,0.019,-0.28,0.387,0,0.022,-0.28,0.429,0,0.044,-0.22,0.429,0,0.349,0.66,0,1,0.02,-0.26,0.375,0,0.091,0.4,0,0.714
92827,20100613,-81.37,27.15,0.019,-0.31,0.464,0,0.016,-0.39,0.53,0,0.02,-0.35,0.571,0,0.041,-0.28,0.571,0,0.349,0.62,0,1,0.017,-0.37,0.518,0,0.089,0.33,0,0.571
92827,20100614,-81.37,27.15,0.016,-0.41,0.607,0,0.014,-0.48,0.673,0,0.019,-0.41,0.714,0,0.038,-0.32,0.714,0,0.348,0.57,0,1,0.015,-0.47,0.661,0,0.087,0.07,0,0.12
92827,20100615,-81.37,27.15,0.014,-0.5,0.75,0,0.014,-0.52,0.72,0.006,0.018,-0.46,0.857,0,0.035,-0.35,0.857,0,0.348,0.53,0,1,0.014,-0.54,0.78,0,0.086,0.09,0,0.043
92827,20100616,-81.37,27.15,0.013,-0.56,0.893,0,0.014,-0.55,0.815,0.006,0.017,-0.5,0.97,0,0.033,-0.37,0.958,0,0.348,0.49,0,1,0.013,-0.6,0.923,0,0.085,0.09,0,0.014
92827,20100617,-81.37,27.15,0.012,-0.61,0.994,0,0.014,-0.58,0.857,0.006,0.017,-0.53,1,0,0.032,-0.37,1,0,0.348,0.47,0,1,0.013,-0.64,0.976,0,0.084,0.07,0,0
92827,20100618,-81.37,27.15,0.011,-0.64,1,0,0.014,-0.6,0.857,0.006,0.016,-0.55,1,0,0.03,-0.37,1,0,0.347,0.43,0,1,0.012,-0.67,0.976,0,0.084,0.04,0,0
92827,20100619,-81.37,27.15,0.011,-0.66,1,0,0.014,-0.62,0.857,0.006,0.015,-0.56,1,0,0.029,-0.36,1,0,0.347,0.39,0,1,0.012,-0.7,0.976,0,0.083,0.02,0,0